Wetbulb
55.29 53.25 51.19 51.81 52.41 51.65 50.49 49.51 48.70 51.22 53.46 53.34 53.48 53.83 55.89 59.62 60.38 60.75 61.51 63.76 66.58 66.60 63.80 64.12 64.07 63.99 63.76 64.30 62.47 62.06 62.17 63.97 64.88 62.45 61.16 60.75 61.13 61.44 60.86 61.56 62.44 62.88 61.74 61.25
54.08 50.82 52.66 52.24 51.77 51.28 51.01 49.80 50.14 51.88 52.64 53.23 53.24 52.80 55.89 58.69 60.03 60.55 58.81 61.47 64.39 63.07 61.23 60.97 61.14 61.69 62.35 62.50 62.06 62.77 62.88 61.27 60.48 60.79 61.91 61.94 61.35 60.70 60.74 60.46 60.67 61.28 60.80 59.87
51.73 52.42 53.18 52.36 51.82 50.98 51.23 50.38 50.16 49.87 52.65 54.09 52.54 51.12 54.17 56.55 59.85 61.55 61.41 61.91 62.75 63.33 59.70 59.39 61.63 62.20 62.38 62.22 62.92 62.46 62.08 61.76 61.42 60.88 61.86 61.83 61.13 59.82 58.84 59.82 59.79 59.46 59.30 58.84
52.52 54.27 52.25 51.92 51.25 52.38 49.66 52.69 51.72 51.30 50.18 46.20 52.00 44.55 52.33 54.46 56.99 59.48 61.09 61.86 61.70 62.11 60.42 60.10 60.49 60.66 61.30 61.21 61.91 60.25 60.55 60.05 60.74 61.80 61.04 60.60 59.53 58.67 59.02 58.95 59.18 58.72 60.07 59.52
51.37 52.05 51.72 51.02 51.58 53.12 51.06 53.32 52.47 51.78 49.80 49.38 49.40 47.36 51.58 53.71 52.91 57.40 59.42 60.04 60.84 59.77 59.71 58.93 58.94 59.16 59.63 59.79 57.74 59.54 58.82 56.21 56.65 57.31 58.72 58.26 56.71 59.97 60.03 59.26 59.05 59.23 59.39 58.17
53.35 55.59 54.46 53.53 53.56 53.59 54.68 53.38 52.14 51.46 49.98 44.99 48.65 47.18 48.11 51.37 53.32 57.25 56.36 56.39 55.80 55.80 54.37 52.99 52.60 53.42 53.64 54.90 54.57 56.04 54.93 54.38 55.11 55.25 55.64 56.91 58.46 58.18 57.44 57.41 55.90 55.53 55.90 56.60
52.33 52.44 54.29 55.65 53.23 54.67 53.82 50.22 43.20 42.47 42.91 42.47 49.14 46.55 50.48 54.04 56.40 58.04 54.74 52.55 51.89 52.38 51.77 51.12 50.83 51.82 53.18 54.88 55.59 55.46 55.73 55.42 55.96 56.65 57.02 57.23 57.46 56.86 56.22 55.65 54.87 54.72 54.75 54.68
48.52 47.14 52.62 55.09 52.93 50.76 50.83 49.72 44.66 37.87 40.04 43.01 48.65 44.80 50.22 56.88 59.10 55.41 52.96 50.71 50.52 49.70 50.47 50.47 51.96 52.14 54.11 54.70 54.89 55.25 55.00 55.29 55.74 55.68 55.50 56.03 56.54 55.07 54.87 55.68 54.94 54.79 54.55 55.18
49.47 48.58 53.67 54.03 54.26 53.38 49.75 48.92 51.73 46.72 47.95 44.44 47.45 49.39 53.07 56.73 56.77 55.10 51.14 50.10 48.74 48.82 50.12 51.34 54.08 54.60 54.06 53.66 53.88 54.13 54.33 54.61 55.03 55.02 55.49 55.46 55.41 55.47 55.34 56.31 56.40 55.18 56.05 55.60
52.40 47.47 51.73 52.66 54.24 54.37 51.98 53.16 47.05 48.52 40.01 37.96 43.87 45.37 47.17 51.48 53.02 55.22 53.05 50.21 50.27 51.60 52.95 54.23 54.65 53.82 53.62 52.86 51.62 53.02 54.11 52.79 53.88 54.59 54.96 54.84 55.41 55.66 55.93 56.14 55.80 55.97 56.30 56.57
53.43 50.43 49.27 51.83 49.94 48.98 51.32 50.13 49.13 48.46 47.09 40.71 39.27 43.12 50.74 51.07 53.01 54.38 53.68 52.93 51.83 52.34 53.96 53.70 53.78 54.00 52.94 53.39 53.44 53.53 53.25 53.17 53.53 53.92 54.48 54.78 54.84 55.31 55.70 55.62 55.82 56.02 56.40 56.52
54.67 51.09 46.65 47.76 51.46 53.08 51.58 49.58 49.62 43.85 41.98 44.83 43.57 43.69 51.89 51.99 53.48 54.43 52.80 51.30 51.84 53.68 52.97 53.83 51.64 49.63 52.69 52.35 52.48 52.88 53.03 52.86 53.37 53.99 54.07 54.33 55.17 55.17 55.06 55.20 55.79 56.44 56.01 56.42
55.07 50.96 44.59 45.94 50.06 52.34 49.19 49.85 50.09 50.02 49.58 44.40 41.56 43.99 52.76 51.99 51.80 52.68 51.21 51.11 51.78 52.51 51.54 50.22 49.72 51.08 51.76 52.02 52.16 51.91 52.28 52.35 52.94 53.58 53.78 54.10 54.14 54.36 54.49 55.00 55.68 55.97 55.88 55.90
54.11 51.48 47.81 43.28 46.02 49.29 46.93 48.09 48.60 48.58 44.56 44.97 44.98 46.38 50.14 49.51 48.98 49.95 50.32 51.66 50.65 49.00 49.16 49.41 50.64 52.00 51.86 51.52 50.41 50.24 51.30 53.04 53.15 53.22 53.31 53.05 53.29 53.87 54.36 54.88 55.13 55.01 55.25 55.16
55.80 48.50 49.62 49.14 49.36 49.29 48.46 47.43 47.00 46.59 47.38 43.83 45.96 45.89 48.38 49.59 49.75 50.26 50.25 48.42 48.28 49.43 50.16 49.96 49.72 49.21 50.30 49.06 50.02 51.19 51.53 51.75 52.68 52.53 52.31 52.46 53.84 53.84 53.87 53.95 54.32 54.57 54.25 54.37
54.79 48.03 49.71 47.04 49.17 48.43 46.27 46.81 47.48 46.83 46.78 47.08 46.75 45.61 50.18 51.01 51.85 50.66 50.53 50.70 49.59 48.74 49.11 48.45 48.29 49.15 48.24 49.95 50.37 50.93 51.14 51.95 52.86 52.24 51.92 52.35 52.84 53.04 52.84 53.17 53.40 53.50 53.40 53.71
51.57 49.25 47.43 43.72 47.67 46.78 43.12 46.07 46.79 47.28 48.59 47.77 44.08 47.89 50.28 48.89 49.75 51.27 50.91 49.29 48.45 48.23 47.22 47.37 47.45 47.95 49.80 49.97 50.45 50.28 50.99 52.08 51.71 51.38 51.20 52.08 52.64 51.66 52.52 52.28 51.98 52.22 52.08 52.41
51.12 50.45 48.61 44.10 46.08 36.98 46.61 51.05 50.06 48.04 48.17 49.18 48.48 49.04 50.16 50.30 51.18 51.15 51.23 50.06 47.43 46.78 47.96 47.37 48.14 49.11 49.99 50.81 51.13 51.92 51.40 50.07 50.08 50.67 51.05 51.63 51.76 51.09 51.56 51.59 51.05 50.91 50.44 49.32
53.42 50.62 46.74 42.86 42.15 44.90 44.39 47.83 45.54 45.59 44.71 49.35 48.28 49.00 49.94 50.97 50.95 48.99 50.10 49.69 48.27 48.35 48.84 49.16 50.25 49.93 50.70 50.83 51.13 50.82 50.53 50.42 49.91 49.49 49.25 50.88 50.87 49.97 50.00 48.72 46.87 48.79 48.96 48.80
52.20 52.79 48.84 45.95 39.91 35.98 46.12 49.66 52.46 51.63 40.94 50.21 50.13 49.46 49.36 49.40 43.20 46.38 49.40 48.54 48.25 49.19 49.37 49.58 50.56 51.02 50.67 51.19 51.55 50.36 49.84 49.46 48.46 48.66 49.57 50.51 50.54 47.92 44.36 45.69 47.00 48.70 47.49 46.20
48.65 49.53 45.64 45.32 42.37 43.95 50.16 51.97 53.05 41.08 44.02 50.77 50.65 50.00 49.14 45.70 46.83 48.70 49.08 48.23 48.98 49.06 49.87 50.87 50.80 50.53 50.53 51.52 51.10 49.21 49.07 48.86 49.99 50.13 49.62 49.61 48.59 48.06 48.36 47.45 47.24 45.97 44.05 44.36
46.16 45.60 46.56 46.26 41.30 36.89 52.16 50.86 45.64 50.14 51.81 51.02 50.45 49.11 47.62 48.17 48.05 46.95 47.21 47.53 48.16 48.87 49.73 50.40 49.76 49.79 50.73 51.18 49.73 48.31 48.90 50.58 50.87 50.44 49.15 48.46 47.56 46.80 47.46 45.97 45.53 44.44 43.64 42.84
47.02 48.86 46.61 46.89 46.28 51.76 52.29 52.44 53.05 52.38 51.73 50.02 49.17 48.63 48.41 47.36 45.98 46.13 46.81 47.74 48.85 49.33 49.90 49.61 49.11 48.77 48.82 50.45 50.48 48.51 49.43 50.02 50.57 49.49 47.69 46.62 47.25 46.12 45.81 44.66 44.31 43.67 42.97 42.69
50.56 52.70 49.24 48.63 49.86 50.89 51.55 52.13 52.55 52.26 50.42 49.54 49.04 48.58 48.37 46.66 46.50 46.91 48.19 49.05 49.07 49.73 48.79 48.96 48.75 48.06 48.72 49.17 48.18 48.29 48.50 49.12 48.30 46.98 47.38 47.23 45.12 45.11 45.58 45.41 45.07 44.20 42.56 42.65
51.10 51.53 48.86 48.32 50.78 50.91 51.20 51.81 51.36 50.33 50.04 48.89 49.05 48.68 47.37 47.09 47.37 47.97 48.37 48.99 49.40 48.67 48.87 48.79 48.65 46.88 46.01 47.69 47.15 47.85 47.89 46.47 46.55 45.98 45.68 44.86 44.89 45.10 45.29 45.81 44.58 44.13 44.75 43.74
52.98 49.98 48.77 47.79 51.13 51.83 52.03 52.13 51.41 50.00 48.79 48.35 48.27 47.42 47.47 48.58 48.25 48.72 49.02 49.97 48.60 47.62 49.06 48.15 45.99 45.14 45.27 45.64 45.77 47.08 47.56 45.99 45.60 44.54 44.43 44.78 45.40 45.73 45.49 45.43 45.49 40.28 40.01 39.49
MSLP
1007.30 1006.24 1006.22 1006.76 1007.01 1006.90 1006.73 1006.44 1006.37 1006.85 1007.70 1007.41 1007.52 1007.71 1008.27 1008.63 1008.72 1008.73 1008.85 1009.36 1010.45 1012.14 1014.81 1015.87 1016.90 1017.74 1018.11 1018.63 1019.48 1020.15 1020.10 1020.71 1020.72 1021.03 1021.19 1021.21 1021.01 1021.36 1021.35 1020.86 1020.82 1021.19 1020.95 1020.29
1006.88 1006.97 1007.69 1007.86 1007.76 1007.37 1007.11 1006.79 1006.79 1007.08 1007.80 1007.89 1007.51 1007.44 1008.57 1009.14 1009.62 1009.94 1010.06 1010.32 1011.64 1014.14 1015.91 1016.95 1018.00 1018.62 1018.87 1019.44 1020.01 1020.23 1020.67 1021.21 1021.34 1021.53 1021.92 1022.22 1021.47 1021.13 1020.86 1020.90 1020.98 1021.26 1020.97 1020.89
1006.93 1007.77 1008.26 1007.96 1007.75 1007.43 1007.44 1007.55 1007.68 1007.63 1007.48 1006.86 1007.32 1006.56 1008.03 1009.17 1009.95 1010.65 1011.32 1012.12 1012.78 1014.26 1016.55 1017.66 1018.04 1018.46 1018.95 1019.41 1019.99 1020.44 1020.94 1021.48 1021.78 1022.09 1021.93 1021.62 1020.92 1020.84 1020.78 1020.36 1020.46 1020.89 1021.01 1020.70
1007.61 1008.17 1008.12 1007.78 1007.96 1008.02 1007.41 1008.41 1008.28 1007.83 1007.49 1006.63 1007.32 1006.60 1007.09 1008.62 1009.89 1011.37 1012.33 1013.24 1014.28 1015.44 1017.09 1017.93 1018.62 1019.18 1019.63 1020.35 1021.09 1021.47 1021.52 1021.36 1021.60 1021.50 1021.77 1021.62 1021.14 1020.47 1020.14 1020.53 1020.44 1020.85 1020.29 1020.15
1008.39 1008.25 1008.10 1008.03 1008.76 1008.74 1008.62 1008.96 1008.54 1008.19 1007.58 1007.10 1006.37 1007.15 1007.13 1008.55 1009.59 1012.12 1014.15 1015.32 1016.12 1017.22 1018.14 1018.98 1019.87 1020.50 1020.92 1021.31 1021.62 1021.55 1021.57 1021.55 1021.91 1021.85 1021.98 1021.62 1021.29 1020.35 1020.04 1020.15 1020.26 1020.36 1019.76 1019.63
1008.68 1009.16 1009.06 1009.08 1009.27 1009.32 1009.26 1008.60 1007.94 1007.06 1007.27 1006.46 1007.20 1008.06 1006.96 1008.60 1011.02 1012.93 1016.01 1017.47 1018.60 1019.40 1020.13 1020.77 1021.28 1021.53 1021.85 1022.11 1022.14 1022.17 1021.92 1022.30 1022.10 1022.12 1021.93 1021.63 1021.08 1020.97 1020.56 1020.33 1020.38 1019.60 1019.54 1019.08
1008.81 1008.98 1009.52 1009.71 1009.06 1008.98 1009.01 1008.76 1007.53 1006.79 1006.47 1006.62 1008.07 1008.73 1008.77 1010.57 1012.35 1013.68 1017.05 1018.94 1020.10 1020.71 1021.10 1021.45 1021.68 1021.92 1022.05 1021.79 1021.61 1021.16 1021.55 1021.66 1021.82 1021.65 1021.42 1021.27 1021.41 1021.38 1020.87 1020.49 1019.87 1020.23 1019.27 1019.01
1009.07 1009.03 1009.68 1010.26 1010.21 1010.12 1009.62 1009.99 1008.95 1008.35 1007.81 1007.89 1008.19 1008.49 1010.11 1012.11 1014.01 1016.54 1018.37 1019.87 1020.88 1021.33 1021.47 1021.49 1021.53 1021.40 1021.18 1021.60 1021.75 1021.63 1021.63 1021.57 1021.59 1021.69 1021.64 1021.36 1021.24 1020.74 1020.48 1020.13 1020.44 1019.83 1019.47 1019.08
1009.99 1009.83 1010.69 1011.17 1010.98 1011.08 1010.24 1009.91 1010.85 1010.31 1009.21 1008.93 1008.13 1009.12 1011.02 1012.64 1014.53 1016.85 1018.93 1020.13 1021.00 1021.41 1021.28 1021.20 1021.23 1021.38 1021.52 1021.88 1022.07 1021.98 1021.94 1021.69 1021.63 1021.48 1021.40 1021.08 1020.88 1020.83 1020.53 1020.50 1020.34 1019.58 1019.50 1018.98
1011.56 1011.07 1011.07 1011.58 1011.67 1011.51 1011.44 1011.80 1010.86 1010.39 1010.13 1009.73 1009.16 1009.87 1010.64 1012.41 1013.60 1015.98 1018.36 1019.90 1020.50 1020.76 1020.91 1021.12 1021.55 1021.88 1022.13 1022.22 1022.17 1022.13 1021.89 1021.72 1021.55 1021.32 1021.10 1020.77 1020.71 1020.61 1020.42 1020.17 1019.87 1019.59 1019.27 1019.03
1012.36 1012.33 1011.38 1011.45 1011.75 1011.85 1011.46 1011.59 1012.23 1012.65 1012.20 1011.60 1011.01 1011.40 1013.72 1014.31 1014.74 1015.24 1017.77 1019.31 1020.17 1020.56 1020.90 1021.44 1021.95 1022.26 1022.53 1022.26 1021.93 1021.91 1021.74 1021.48 1021.32 1021.16 1021.00 1020.79 1020.58 1020.41 1020.21 1019.96 1019.60 1019.34 1019.12 1018.80
1013.55 1013.19 1012.18 1011.99 1012.82 1013.18 1012.92 1013.07 1013.28 1013.23 1013.04 1012.88 1013.10 1013.46 1015.28 1015.85 1016.13 1016.86 1018.44 1019.98 1020.68 1020.94 1021.61 1022.11 1022.76 1022.76 1022.26 1022.12 1022.00 1021.87 1021.82 1021.47 1021.31 1021.07 1020.98 1020.72 1020.63 1020.39 1020.15 1019.80 1019.42 1019.13 1018.80 1018.39
1014.11 1013.44 1012.94 1012.27 1013.20 1013.23 1013.00 1013.61 1014.15 1014.27 1014.50 1013.73 1013.47 1013.62 1015.59 1016.74 1017.50 1018.28 1019.40 1020.44 1020.95 1021.89 1022.82 1023.25 1023.07 1022.52 1022.13 1022.05 1022.09 1021.83 1021.81 1021.49 1021.25 1021.00 1020.70 1020.42 1020.46 1020.27 1019.92 1019.59 1019.31 1018.98 1018.59 1018.15
1015.23 1014.44 1013.93 1013.26 1013.04 1013.64 1013.79 1013.95 1014.39 1014.85 1014.72 1014.06 1013.99 1014.61 1015.63 1017.38 1018.29 1019.42 1020.22 1021.03 1022.03 1023.01 1023.20 1023.12 1022.56 1022.16 1022.20 1022.31 1022.43 1022.14 1021.78 1021.43 1021.21 1020.98 1020.56 1020.51 1020.42 1020.19 1019.81 1019.46 1019.23 1018.89 1018.55 1018.19
1015.44 1014.70 1014.23 1014.03 1013.92 1014.33 1014.39 1014.70 1015.01 1015.11 1015.15 1015.36 1015.50 1016.04 1017.35 1018.20 1018.85 1019.92 1021.16 1022.00 1022.52 1022.67 1022.62 1022.73 1022.77 1022.72 1022.46 1022.65 1022.38 1022.08 1021.87 1021.70 1021.22 1020.70 1020.46 1020.35 1019.90 1019.86 1019.77 1019.55 1019.12 1018.91 1018.62 1018.26
1015.63 1015.12 1014.85 1014.53 1014.22 1014.70 1014.98 1015.47 1015.96 1016.13 1016.32 1016.29 1016.53 1016.99 1018.59 1019.31 1019.82 1020.63 1021.27 1021.51 1021.89 1022.42 1022.86 1023.12 1023.09 1022.92 1022.78 1022.52 1022.41 1022.18 1021.97 1021.68 1021.32 1020.91 1020.53 1020.28 1019.94 1019.70 1019.65 1019.46 1019.20 1019.06 1018.79 1018.58
1015.97 1015.52 1015.23 1014.66 1014.72 1015.28 1015.38 1015.99 1016.61 1016.99 1017.36 1017.62 1017.54 1018.30 1018.96 1019.35 1020.01 1020.65 1021.25 1021.88 1022.43 1022.87 1023.39 1023.33 1023.40 1023.23 1022.98 1022.66 1022.56 1022.30 1022.14 1021.87 1021.36 1020.98 1020.63 1020.00 1019.71 1019.70 1019.66 1019.57 1019.45 1019.30 1019.21 1019.06
1016.30 1016.15 1015.87 1015.56 1015.58 1015.90 1017.03 1017.60 1017.96 1018.22 1018.53 1018.70 1018.80 1019.29 1019.57 1020.06 1020.56 1021.47 1022.10 1022.44 1023.24 1023.61 1023.56 1023.64 1023.51 1023.28 1023.20 1022.83 1022.73 1022.43 1022.24 1021.78 1021.28 1020.88 1020.51 1019.97 1019.73 1019.91 1019.86 1019.90 1019.84 1019.71 1019.64 1019.54
1016.97 1016.58 1016.37 1016.50 1016.45 1016.75 1018.32 1018.77 1019.38 1019.27 1019.23 1019.47 1019.71 1019.99 1020.16 1020.55 1020.51 1022.02 1022.99 1023.43 1023.82 1024.00 1024.00 1023.90 1023.72 1023.58 1023.18 1022.93 1022.68 1022.46 1021.95 1021.43 1021.22 1020.91 1020.80 1020.54 1020.51 1020.44 1020.54 1020.67 1020.86 1020.48 1019.93 1019.67
1016.96 1017.07 1016.97 1016.98 1017.30 1017.68 1018.44 1019.21 1019.55 1019.55 1019.73 1020.27 1020.55 1020.69 1020.99 1021.06 1020.65 1021.60 1023.44 1023.99 1024.22 1024.31 1024.31 1024.20 1023.84 1023.46 1023.23 1022.83 1022.64 1022.26 1021.76 1021.57 1021.39 1021.36 1021.37 1021.20 1021.18 1021.66 1021.86 1021.60 1021.15 1020.72 1020.57 1020.51
1016.58 1017.00 1017.19 1017.70 1018.23 1018.53 1019.04 1019.30 1019.68 1019.65 1020.95 1021.19 1021.42 1021.75 1021.96 1022.12 1023.18 1023.72 1024.28 1024.34 1024.58 1024.61 1024.46 1024.33 1023.73 1023.20 1023.30 1022.88 1022.56 1022.30 1022.09 1021.88 1021.85 1021.84 1021.79 1021.76 1022.04 1021.94 1021.73 1021.56 1021.45 1021.33 1021.20 1020.95
1017.11 1017.30 1017.55 1017.96 1018.44 1019.26 1019.85 1019.89 1020.06 1020.93 1021.58 1021.91 1022.32 1022.67 1022.90 1023.44 1023.95 1024.68 1024.93 1024.70 1024.74 1024.48 1024.25 1024.02 1023.62 1023.30 1023.13 1022.84 1022.81 1022.63 1022.49 1022.28 1022.12 1022.13 1022.00 1022.27 1022.47 1022.33 1021.97 1021.99 1021.97 1021.80 1021.50 1021.18
1017.56 1018.24 1018.56 1018.71 1019.15 1020.11 1020.54 1020.72 1021.54 1021.76 1022.07 1022.76 1023.04 1023.63 1023.90 1024.23 1024.80 1025.11 1024.92 1024.92 1024.72 1024.45 1024.17 1024.21 1023.76 1023.46 1023.38 1023.12 1023.21 1023.23 1023.21 1022.81 1022.37 1022.33 1022.64 1022.82 1022.56 1022.66 1022.58 1022.41 1022.27 1022.11 1021.98 1021.64
1017.91 1018.55 1018.34 1018.81 1019.75 1020.12 1020.95 1021.69 1022.18 1022.65 1023.17 1023.68 1024.04 1024.36 1024.60 1024.81 1025.03 1025.16 1025.04 1024.96 1024.78 1024.53 1024.43 1024.40 1024.08 1023.87 1023.83 1024.19 1024.41 1024.36 1024.06 1023.63 1023.25 1023.11 1022.90 1022.89 1023.07 1023.05 1022.98 1022.81 1022.68 1022.55 1022.49 1022.24
1018.10 1018.70 1018.49 1018.63 1019.79 1020.64 1021.27 1021.88 1022.80 1023.43 1023.90 1024.26 1024.67 1024.99 1025.25 1025.26 1025.37 1025.31 1025.29 1025.24 1025.06 1025.00 1024.92 1024.86 1024.97 1025.22 1025.24 1025.06 1024.98 1024.79 1024.64 1024.42 1023.73 1023.70 1023.65 1023.66 1023.63 1023.52 1023.37 1023.18 1023.27 1023.18 1023.23 1023.00
1018.17 1018.41 1018.80 1019.35 1019.99 1020.21 1021.16 1022.55 1023.29 1023.70 1024.27 1024.71 1025.04 1025.50 1025.83 1025.67 1025.73 1025.69 1025.48 1025.50 1025.57 1025.53 1025.34 1025.65 1026.20 1026.32 1026.26 1026.03 1025.84 1025.55 1025.27 1025.09 1024.70 1024.40 1024.29 1024.30 1024.00 1023.83 1023.75 1023.66 1023.75 1023.92 1023.71 1023.48
Wind_Speed
3 4 8 9 7 6 3 2 5 5 5 7 5 3 6 8 9 10 8 4 3 7 12 9 9 12 14 15 13 10 10 6 3 5 3 3 3 6 6 7 5 7 7 9
8 10 7 3 3 2 2 5 8 4 2 8 2 5 2 6 9 10 6 4 9 12 11 13 12 11 13 13 11 10 8 5 4 2 1 3 4 5 7 8 3 6 7 7
10 8 3 3 3 6 4 10 8 10 11 11 8 16 10 6 8 10 11 9 8 11 12 12 13 15 16 15 14 10 6 4 1 4 4 7 6 5 6 5 5 4 8 7
6 4 2 4 6 8 2 7 8 13 15 13 4 12 11 6 9 10 11 11 10 10 11 11 13 13 13 11 7 4 2 4 4 6 6 9 8 8 6 6 6 8 8 9
7 4 3 3 5 5 8 8 10 14 16 10 9 8 10 5 3 10 12 12 11 11 9 11 10 10 7 8 9 6 6 9 7 5 5 6 5 8 6 5 8 10 10 9
6 2 5 6 1 3 6 13 19 12 6 10 8 5 4 8 7 10 9 12 13 13 13 13 11 11 9 5 4 4 6 4 4 1 2 4 6 8 8 9 10 8 8 5
3 3 3 6 11 4 13 15 11 7 8 7 5 8 10 8 7 9 11 11 10 9 9 10 11 7 5 3 4 7 8 6 4 5 6 6 7 9 10 9 7 8 6 5
6 3 4 6 7 9 13 9 8 12 10 12 7 5 9 8 13 13 12 10 9 9 8 9 7 7 9 10 10 10 9 8 7 7 7 6 7 6 7 6 6 6 6 6
7 1 4 7 5 8 10 6 7 10 14 10 3 4 11 8 9 11 9 9 9 9 9 9 10 10 10 10 9 9 10 9 8 8 7 6 5 6 7 7 7 6 7 7
5 9 4 5 5 6 7 5 6 4 8 9 8 12 11 7 5 6 9 8 9 10 9 9 9 9 8 7 6 7 8 8 8 8 7 6 7 7 7 8 9 9 9 9
4 3 6 8 5 7 1 4 6 5 7 10 10 8 11 11 12 3 7 8 9 8 8 10 9 10 10 9 10 10 10 10 8 7 8 8 8 8 8 8 9 9 9 9
4 6 8 7 1 2 4 6 9 7 10 11 11 8 9 11 11 8 10 8 7 7 9 10 9 6 10 12 11 11 9 8 8 7 7 7 7 7 8 9 10 9 9 9
2 1 8 2 8 8 3 8 6 7 8 10 10 4 9 11 9 8 8 7 6 11 11 7 7 8 9 11 11 10 9 8 8 8 8 7 7 8 8 9 9 8 9 8
2 5 9 10 13 6 10 12 8 8 8 10 9 12 15 8 6 6 6 8 9 6 6 4 8 12 13 11 10 9 9 9 10 8 8 8 7 8 8 9 9 9 10 9
4 9 10 12 9 9 12 10 10 11 6 7 11 9 8 6 5 8 7 3 5 6 6 10 12 13 11 8 8 9 9 9 8 9 8 7 7 8 8 8 9 10 10 9
2 11 9 13 14 6 11 4 7 3 4 7 5 5 5 3 3 2 5 5 9 6 9 12 13 10 9 9 9 10 9 10 11 11 10 9 10 9 7 7 9 10 10 11
6 9 9 13 7 8 13 3 2 1 3 7 8 8 4 6 6 8 11 8 9 11 11 12 9 8 9 10 9 10 11 11 11 11 11 12 10 9 7 8 8 9 10 11
7 7 8 9 10 11 8 6 6 9 6 3 4 8 8 7 7 7 9 10 11 11 11 9 7 8 9 9 11 10 10 9 9 11 12 11 10 9 7 8 9 9 10 8
2 3 3 4 4 4 4 3 2 5 2 4 6 6 7 9 11 10 8 10 10 10 7 7 8 9 9 11 10 11 11 10 11 13 11 12 10 11 10 11 10 10 9 8
1 4 4 3 5 3 4 4 2 5 3 6 6 7 10 13 8 11 10 9 8 7 7 8 9 10 10 10 11 11 11 12 12 10 10 9 9 9 6 5 7 8 9 8
2 2 2 2 2 2 3 2 3 5 6 6 6 7 10 9 7 8 8 7 6 6 7 9 10 10 11 11 11 11 11 13 10 9 7 9 7 6 9 8 7 9 7 5
5 4 2 2 3 2 4 3 6 7 5 4 5 7 7 6 6 7 5 5 6 7 9 9 10 10 8 10 9 11 12 11 9 7 6 8 7 6 7 9 6 7 9 7
2 5 4 5 5 5 4 6 6 4 6 5 6 6 5 6 6 3 6 4 6 8 9 9 10 10 9 10 10 12 13 12 10 10 10 8 7 8 6 6 7 5 7 6
4 1 4 5 5 5 6 7 7 7 7 6 6 6 6 6 6 5 6 7 8 10 10 9 11 11 12 13 12 10 10 10 8 8 7 8 8 7 7 6 5 4 5 4
6 2 5 2 5 5 5 6 8 8 7 7 7 6 6 6 6 5 6 8 10 10 9 10 13 13 12 10 10 11 13 12 9 9 9 8 6 6 5 5 6 5 6 6
3 5 3 4 4 4 8 9 8 6 6 5 6 7 6 5 6 4 7 9 8 8 9 12 12 11 12 12 10 10 9 7 7 7 6 6 5 5 5 4 6 10 7 7
Wind_Direction
191 231 31 39 28 30 54 360 321 65 35 300 353 341 15 6 11 4 6 158 135 127 94 119 125 130 130 115 109 114 113 123 23 27 12 338 351 312 278 255 288 304 330 338
217 69 60 89 118 115 336 309 32 156 44 285 197 259 146 48 41 37 18 70 126 116 117 115 122 137 120 118 131 132 95 64 65 77 356 296 293 295 296 296 310 293 321 314
47 65 105 191 139 294 73 1 358 337 318 258 265 265 175 116 70 61 62 71 86 122 138 139 143 143 131 125 104 99 105 125 183 306 273 263 264 260 252 260 299 335 302 318
50 76 209 216 74 324 354 359 309 312 315 306 344 295 156 119 107 69 61 64 82 107 139 149 142 135 139 116 90 111 176 130 240 244 278 271 283 285 298 295 308 306 311 323
71 39 13 50 38 324 25 325 311 304 300 308 217 261 119 102 123 72 58 51 60 74 90 100 96 92 83 44 40 28 55 37 23 10 315 308 329 289 283 293 303 297 284 303
86 88 23 20 298 0 305 297 307 274 258 261 74 322 3 37 24 105 82 63 71 75 72 72 71 66 62 53 94 145 97 72 56 38 290 299 309 313 312 315 305 305 313 319
191 125 122 350 312 237 329 330 311 313 294 317 64 292 51 64 31 45 105 85 76 76 81 82 82 95 138 119 33 33 22 25 347 318 316 319 307 304 289 307 309 316 311 323
333 194 19 10 358 330 311 323 312 315 323 324 288 277 78 74 75 80 89 94 87 80 92 103 107 89 66 46 25 13 4 353 352 333 321 309 312 309 295 351 325 308 314 323
313 39 102 31 1 332 352 300 347 286 270 255 1 118 159 122 111 107 101 98 99 110 101 86 69 51 36 21 17 358 352 344 337 330 321 329 341 340 341 323 312 314 304 323
62 297 88 45 267 122 352 6 288 280 305 317 318 315 51 37 2 134 135 121 126 118 97 68 45 36 25 7 357 347 345 342 336 336 346 352 333 331 329 320 319 314 308 304
338 286 329 281 31 348 260 21 339 287 279 313 308 345 13 2 352 8 105 119 113 100 68 51 31 16 354 341 357 349 344 337 342 346 343 336 335 325 319 315 313 305 295 290
53 312 299 343 48 308 341 356 335 323 313 311 298 290 27 18 26 68 101 107 97 65 47 20 13 338 352 346 347 341 345 333 343 335 331 324 324 321 320 316 308 308 300 302
59 279 303 208 168 192 325 340 307 299 277 281 299 333 82 45 52 78 105 110 86 29 4 1 349 341 339 344 340 346 340 337 329 332 320 317 331 322 321 320 322 317 312 314
297 280 282 296 331 338 299 319 329 288 284 314 331 345 28 43 74 103 105 41 22 348 348 318 324 346 343 351 348 338 335 337 338 322 312 336 334 325 332 332 336 334 339 332
290 290 301 289 296 290 299 316 315 299 330 290 354 346 24 27 58 63 39 13 323 301 333 355 348 339 351 356 346 344 346 339 324 321 326 315 326 326 331 342 347 345 339 332
247 282 287 281 274 279 290 328 287 286 326 286 300 5 31 52 122 14 331 321 347 348 354 354 343 355 353 356 349 341 339 341 332 334 328 332 323 316 346 337 345 350 343 348
289 282 271 277 306 298 272 124 316 283 360 336 343 21 348 356 337 343 355 13 355 1 350 347 353 352 351 348 338 340 335 333 328 331 319 320 319 332 335 343 347 357 350 345
286 276 276 280 286 277 67 54 1 347 357 3 25 2 12 4 356 23 22 15 10 345 349 353 356 350 348 333 339 337 340 325 336 332 330 339 337 332 341 358 360 354 353 344
272 275 251 262 292 128 82 325 124 307 55 55 11 357 7 348 295 84 30 19 358 355 8 357 350 344 323 335 334 345 333 339 330 350 339 353 359 14 14 12 0 346 333 351
122 243 248 262 273 330 94 134 217 301 171 45 1 7 352 330 334 52 10 6 8 13 10 346 339 329 341 346 357 333 351 352 344 352 355 3 20 26 9 330 337 343 4 16
304 279 275 129 186 204 51 107 268 270 47 52 20 7 2 360 11 3 355 14 26 6 349 337 342 336 349 331 352 336 353 351 350 17 9 26 35 341 7 351 1 8 350 348
334 323 4 298 237 119 40 183 313 57 78 49 31 17 13 21 31 15 2 19 12 352 347 353 338 353 346 353 354 352 356 352 28 32 20 28 8 346 2 8 15 8 7 10
312 8 339 5 22 88 61 61 77 47 66 45 36 29 32 42 55 72 62 30 9 358 356 4 345 355 6 2 5 0 360 359 359 20 21 9 7 19 13 8 15 4 9 16
142 30 303 293 121 110 113 97 91 81 82 66 53 58 67 89 91 85 48 24 9 7 12 357 360 357 8 29 19 11 1 359 6 11 8 16 25 16 23 20 9 9 11 9
37 238 332 296 119 133 133 118 116 104 91 76 68 76 89 106 83 49 39 19 19 19 11 15 21 23 23 15 23 20 21 5 28 27 31 21 24 25 21 27 19 15 44 23
125 350 325 32 40 9 106 131 129 112 85 76 103 109 111 91 67 21 33 31 23 30 21 45 49 34 20 16 14 4 5 8 13 19 23 24 24 26 28 26 72 48 55 41